{"data":{"norad_id":69384,"epoch":"2026-09-20T03:57:47.613888Z","epoch_age_seconds":63730,"freshness":"FRESH","line1":"1 69384U 26124C   26263.16513442  .00000114  00000+0  15730-3 0  9994","line2":"2 69384  89.0062 352.0731 0002220 106.9405 253.1990 13.51031820 14850","mean_motion":13.5103182,"eccentricity":0.000222,"inclination_deg":89.0062,"raan_deg":352.0731,"arg_perigee_deg":106.9405,"mean_anomaly_deg":253.199,"bstar":0.0001573,"rev_number":1485,"period_min":106.58520241218,"perigee_km":1066.811513975,"apogee_km":1070.1178051118,"semimajor_km":7446.6016595434,"source":"CELESTRAK","updated_at":"2026-09-20T09:00:24.858186Z"}}